Regional Weather Roundup
Issued by NWS San Angelo, TX

Home | Current Version | Previous Version | Text Only | Print | Product List | Glossary On
Versions: 1 2 3 4 5 6 7 8 9 10 11 12 13 14 15 16 17 18 19 20 21 22 23 24 25 26 27 28 29 30 31 32 33 34 35 36 37 38 39 40 41 42 43 44 45 46 47 48 49 50
000
ASUS44 KSJT 231810
RWRSJT
WEST CENTRAL TEXAS REGIONAL WEATHER ROUNDUP
NATIONAL WEATHER SERVICE SAN ANGELO TX
100 PM CDT SUN APR 23 2017

NOTE: "FAIR" INDICATES FEW OR NO CLOUDS BELOW 12,000 FEET WITH NO
SIGNIFICANT WEATHER AND/OR OBSTRUCTIONS TO VISIBILITY.

TXZ049-054-064>066-071>073-076>078-098-099-113-114-127-128-139-140-
154-155-168>170-231900
...LOCATIONS ACROSS WEST CENTRAL TEXAS...

CITY           SKY/WX    TMP DP  RH WIND       PRES   REMARKS
SAN ANGELO     SUNNY     67  28  23 VRB6      30.20F
ABILENE        SUNNY     65  34  31 VRB5      30.20F
DYESS AFB      SUNNY     66  35  32 NE7       30.18F
JUNCTION       SUNNY     68  30  24 E7        30.19F
SWEETWATER     SUNNY     64  32  29 CALM      30.22F
BROWNWOOD      SUNNY     68  34  28 N12       30.18F
COLEMAN        CLEAR     67  33  29 NE7       30.19F
SONORA         SUNNY     64  30  27 N8        30.25F
OZONA            N/A     64  32  29 NE5       30.24F
BRADY          NOT AVBL
$$

TEXAS PANHANDLE/OKLAHOMA PANHANDLE

CITY           SKY/WX    TMP DP  RH WIND       PRES   REMARKS
AMARILLO       SUNNY     64  34  32 S12       30.18F
BORGER         SUNNY     64  34  32 S13       30.15F
CANADIAN       SUNNY     65  31  27 SW7       30.16F
DALHART        SUNNY     64  34  32 S21G29    30.13F
DUMAS          CLEAR     61  36  38 SW17G23   30.15F
GUYMON         NOT AVBL
HEREFORD       CLEAR     64  35  34 S12G22    30.18F
PAMPA          CLEAR     65  33  30 SW9G16    30.18F
PERRYTON       SUNNY     62  42  47 S14       30.15F
$$

SOUTHERN PANHANDLE/SOUTH PLAINS/ROLLING PLAINS

CITY           SKY/WX    TMP DP  RH WIND       PRES   REMARKS
LUBBOCK        MOSUNNY   64  32  30 SW9       30.20F
SNYDER         SUNNY    N/A N/A N/A E5        30.22F
CHILDRESS      SUNNY     66  31  27 VRB3      30.19F
SEMINOLE       CLEAR     62  34  34 S9        30.23F
$$

PERMIAN BASIN

CITY           SKY/WX    TMP DP  RH WIND       PRES   REMARKS
MIDLAND        SUNNY     65  32  29 E6        30.22F
ODESSA         SUNNY     64  32  30 E9        30.22F
WINK           SUNNY     66  34  30 S12       30.20F
$$

FAR WEST/SOUTHWEST MOUNTAINS/TRANS PECOS

CITY           SKY/WX    TMP DP  RH WIND       PRES   REMARKS
ALPINE         CLEAR     65  32  29 E7        30.28F
DRYDEN           N/A     67  36  31 E10       30.20F
EL PASO        MOSUNNY   69  29  22 SE10G23   30.15F
FORT STOCKTON  SUNNY     65  34  31 SE12G18   30.21F
GUADALUPE PASS SUNNY     59  33  37 E18G24    30.25S
MARFA          SUNNY     66  30  26 SE8G16    30.24F
PECOS          CLEAR     67  35  30 E10G16    30.21F
$$

DALLAS/FORT WORTH METROPLEX

CITY           SKY/WX    TMP DP  RH WIND       PRES   REMARKS
DFW AIRPORT    SUNNY     71  40  32 NW15      30.12F
FTW MEACHAM    SUNNY     70  41  34 N12G22    30.13F
DAL-EXECUTIVE  SUNNY     68  41  37 NW16G23   30.12F
GRAND PRAIRIE  SUNNY     68  39  34 N16G23    30.15F
ADDISON        SUNNY     66  41  39 N9G20     30.14F
MESQUITE       CLEAR     66  43  42 N9G20     30.13F
LANCASTER      CLEAR     67  43  42 NW6G16    30.14F
$$

NORTH CENTRAL TEXAS

CITY           SKY/WX    TMP DP  RH WIND       PRES   REMARKS
SHRMAN/DENISON CLEAR     65  41  41 N12G17    30.14F
GAINESVILLE    SUNNY     66  42  40 N12G17    30.16F
BRIDGEPORT     CLEAR     67  36  32 NW12G18   30.17F
DENTON         SUNNY     68  42  38 N12       30.14F
WAXAHACHIE     PTCLDY    66  42  41 N10G22    30.15F
GRANBURY       CLEAR     68  37  31 N8G17     30.17F
$$

WESTERN NORTH TEXAS

CITY           SKY/WX    TMP DP  RH WIND       PRES   REMARKS
WICHITA FALLS  SUNNY     69  36  29 NW7       30.17F
VERNON         CLEAR     67  25  21 N6        30.19F
BRECKENRIDGE   CLEAR     69  31  24 N8        30.18F
COMANCHE       SUNNY     66  38  35 NW9G17    30.19F
$$

CENTRAL AND SOUTH CENTRAL TEXAS

CITY           SKY/WX    TMP DP  RH WIND       PRES   REMARKS
AUSTIN/BERGSTM SUNNY     72  41  32 N18G24    30.14F
WACO           SUNNY     69  44  40 N14       30.14F
HILLSBORO      CLEAR     67  43  42 N13G22    30.14F
TEMPLE         SUNNY     67  43  41 N16       30.15F
KILLEEN-GRAY   MOSUNNY   68  39  34 N15       30.14F
FORT HOOD      SUNNY     68  38  32 N15G21    30.12F
GEORGETOWN     SUNNY     70  39  32 N14       30.15F
LAGO VISTA     FAIR      69  38  32 N10G17    30.16F
SAN MARCOS     SUNNY     72  41  33 N16G23    30.16F
NEW BRAUNFELS  SUNNY     73  40  30 N15G21    30.14F
RANDOLPH AFB   SUNNY     70  38  31 N8G20     30.15F
SAN ANTONIO    SUNNY     71  40  32 NE10      30.16F
STINSON        SUNNY     72  39  30 N3        30.14F
PLEASANTON     NOT AVBL
LA GRANGE      SUNNY     69  44  40 N14G20    30.11F
GIDDINGS       CLEAR     67  41  39 N10G20    30.14F
$$

EAST TEXAS

CITY           SKY/WX    TMP DP  RH WIND       PRES   REMARKS
PARIS          SUNNY     66  45  45 NW8G18    30.10F
CLARKSVILLE    NOT AVBL
TYLER          SUNNY     66  42  41 N12G21    30.09F
LONGVIEW       SUNNY     67  45  45 N9G21     30.05F
PALESTINE      CLEAR     67  46  46 NW9G20    30.11F
NACOGDOCHES    SUNNY     66  46  48 N13       30.05F
$$

TEXAS HILL COUNTRY AND EDWARDS PLATEAU

CITY           SKY/WX    TMP DP  RH WIND       PRES   REMARKS
LLANO          CLEAR     70  37  30 N8G20     30.20F
HORSESHOE BAY  FAIR      69  41  36 NW8       30.17F
KERRVILLE      SUNNY     66  39  36 N8G16     30.19F
FREDERICKSBRG  SUNNY     67  33  28 N10G16    30.18F
ROCKSPRINGS    CLEAR     63  34  34 NE7       30.23F
HONDO          SUNNY     72  40  31 N8        30.18F
UVALDE         CLEAR     67  42  39 CALM      30.21F
DEL RIO        NOT AVBL
$$

SOUTHEAST TEXAS

CITY           SKY/WX    TMP DP  RH WIND       PRES   REMARKS
COLLEGE STN    SUNNY     69  44  40 N18G28    30.11F
CALDWELL       NOT AVBL
CROCKETT       CLEAR     64  46  52 N9G16     30.12F
BRENHAM        SUNNY     68  46  44 N17       30.12F
HUNTSVILLE     MOSUNNY   66  45  46 N7G16     30.09F
CONROE         MOSUNNY   66  47  50 NW15      30.09F
HOUSTON BUSH   MOSUNNY   68  47  46 N14G22    30.07F
HOUSTON HOBBY  MOSUNNY   69  46  43 NW17G23   30.06F
PERLAND        SUNNY     69  44  40 N13       30.08F
WHARTON        CLEAR     68  44  42 N18       30.11F
$$

THE UPPER TEXAS COAST

CITY           SKY/WX    TMP DP  RH WIND       PRES   REMARKS
ORANGE         PTCLDY    65  50  57 N8G16     30.04F
PORT ARTHUR    MOSUNNY   69  48  47 NW9G21    30.03F
GALVESTON      SUNNY     69  50  50 N15       30.07F
ANGLETON       SUNNY     69  48  47 N13       30.08F
BAY CITY       CLEAR     68  48  48 N13G18    30.08F
$$

TEXAS COASTAL BEND, RIO GRANDE PLAINS DEEP SOUTH TEXAS

CITY           SKY/WX    TMP DP  RH WIND       PRES   REMARKS
VICTORIA       SUNNY     73  44  35 N15G25    30.12F
BEEVILLE       FAIR      72  45  37 N13       30.15F
ROCKPORT       SUNNY     75  43  31 N12       30.12F
PORT ARANSAS   CLEAR     70  42  36 N17       30.13F
PORT LAVACA    CLEAR     70  49  46 N18       30.12F
CORPUS CHRISTI MOSUNNY   71  46  40 N15G22    30.14F
KINGSVILLE NAS SUNNY     73  44  35 N10G20    30.15F
COTULLA        SUNNY     71  36  27 NW8       30.18F
LAREDO         SUNNY     72  42  34 NW8       30.19F
BROWNSVILLE    CLOUDY    69  49  48 NW15      30.16F
PORT ISABEL    CLOUDY    70  47  43 N18G25    30.15F
HEBBRONVILLE   CLEAR     67  40  37 CALM      30.18F
MCALLEN        PTSUNNY   76  45  33 N14G20    30.17F
WESLACO        CLOUDY    72  46  39 N14       30.16F
FALFURRIAS     CLEAR     71  39  31 N8        30.16F
EDINBURG       PTCLDY    74  41  30 N17       30.18F
$$




USA.gov is the U.S. government's official web portal to all federal, state and local government web resources and services.